• în România
  • Lista ţărilor
  • Pe 7 zile
  • Temperatura apei
  • Hartă satelitară
  • Meteo pe hartă
  • Widget-uri
  • user-avatar
    Intrare

    Meteo pe oră la Wavre

    Astăzi, 15 Decembrie, Vineri

    Timp Temperatura Precipitaţii Vânt Presiune Umiditate
    00:00 -1°C° 0 mm 4 m/s 737 mmHg 91%
    01:00 -1°C° 0 mm 4 m/s 738 mmHg 91%
    02:00 -1°C° 0 mm 4 m/s 738 mmHg 91%
    03:00 -1°C° 0 mm 4 m/s 738 mmHg 91%
    04:00 -1°C° 0 mm 4 m/s 738 mmHg 92%
    05:00 -1°C° 0 mm 4 m/s 738 mmHg 93%
    06:00 +1°C° 0 mm 3 m/s 738 mmHg 93%
    07:00 +1°C° 0 mm 3 m/s 738 mmHg 93%
    08:00 +1°C° 0 mm 3 m/s 738 mmHg 93%
    09:00 +1°C° 0 mm 3 m/s 739 mmHg 93%
    10:00 +2°C° 0 mm 3 m/s 739 mmHg 91%
    11:00 +3°C° 0 mm 3 m/s 739 mmHg 88%
    12:00 +4°C° 0 mm 3 m/s 740 mmHg 85%
    13:00 +4°C° 0,1 mm 2 m/s 740 mmHg 87%
    14:00 +4°C° 0,1 mm 2 m/s 741 mmHg 90%
    15:00 +5°C° 0,1 mm 1 m/s 741 mmHg 92%
    16:00 +4°C° 0,1 mm 1 m/s 742 mmHg 92%
    17:00 +4°C° 0,1 mm 1 m/s 742 mmHg 93%
    18:00 +4°C° 0,1 mm 1 m/s 743 mmHg 94%
    19:00 +3°C° 0 mm 1 m/s 744 mmHg 94%
    20:00 +3°C° 0 mm 1 m/s 744 mmHg 95%
    21:00 +2°C° 0 mm 2 m/s 745 mmHg 95%
    22:00 +1°C° 0 mm 2 m/s 746 mmHg 95%
    23:00 +2°C° 0 mm 1 m/s 747 mmHg 95%

    Mâine, 16 Decembrie, Sâmbătă

    Timp Temperatura Precipitaţii Vânt Presiune Umiditate
    00:00 +2°C° 0 mm 1 m/s 747 mmHg 95%
    01:00 +1°C° 0 mm 2 m/s 748 mmHg 95%
    02:00 +1°C° 0 mm 2 m/s 749 mmHg 94%
    03:00 +1°C° 0 mm 2 m/s 749 mmHg 94%
    04:00 +1°C° 0,1 mm 2 m/s 750 mmHg 93%
    05:00 +2°C° 0,1 mm 2 m/s 751 mmHg 92%
    06:00 +1°C° 0,1 mm 3 m/s 751 mmHg 92%
    07:00 +1°C° 0,2 mm 3 m/s 752 mmHg 90%
    08:00 +1°C° 0,2 mm 3 m/s 752 mmHg 89%
    09:00 +2°C° 0,2 mm 3 m/s 753 mmHg 88%
    10:00 +1°C° 0,2 mm 4 m/s 753 mmHg 83%
    11:00 +3°C° 0,2 mm 4 m/s 754 mmHg 79%
    12:00 +3°C° 0,2 mm 5 m/s 754 mmHg 75%
    13:00 +3°C° 0,3 mm 5 m/s 755 mmHg 76%
    14:00 +3°C° 0,3 mm 4 m/s 755 mmHg 78%
    15:00 +3°C° 0,3 mm 4 m/s 755 mmHg 80%
    16:00 +1°C° 0,2 mm 4 m/s 756 mmHg 82%
    17:00 +1°C° 0,2 mm 4 m/s 757 mmHg 84%
    18:00 +1°C° 0,2 mm 4 m/s 757 mmHg 86%
    19:00 0°C° 0,1 mm 4 m/s 758 mmHg 87%
    20:00 0°C° 0,1 mm 4 m/s 758 mmHg 87%
    21:00 0°C° 0,1 mm 4 m/s 759 mmHg 88%
    22:00 0°C° 0,1 mm 4 m/s 759 mmHg 89%
    23:00 0°C° 0,1 mm 4 m/s 760 mmHg 89%

    Poimâine, 17 Decembrie, Duminică

    Timp Temperatura Precipitaţii Vânt Presiune Umiditate
    00:00 0°C° 0,1 mm 4 m/s 760 mmHg 89%
    01:00 0°C° 0,1 mm 4 m/s 760 mmHg 89%
    02:00 0°C° 0,1 mm 4 m/s 761 mmHg 89%
    03:00 0°C° 0,1 mm 4 m/s 761 mmHg 89%
    04:00 0°C° 0,1 mm 4 m/s 761 mmHg 90%
    05:00 +1°C° 0,1 mm 3 m/s 762 mmHg 90%
    06:00 0°C° 0,1 mm 3 m/s 762 mmHg 90%
    07:00 0°C° 0 mm 3 m/s 762 mmHg 89%
    08:00 -1°C° 0 mm 4 m/s 763 mmHg 88%
    09:00 0°C° 0 mm 4 m/s 763 mmHg 87%
    10:00 0°C° 0 mm 4 m/s 763 mmHg 84%
    11:00 +1°C° 0 mm 4 m/s 764 mmHg 82%
    12:00 +3°C° 0 mm 4 m/s 764 mmHg 79%
    13:00 +3°C° 0 mm 4 m/s 764 mmHg 80%
    14:00 +3°C° 0 mm 4 m/s 763 mmHg 80%
    15:00 +3°C° 0 mm 4 m/s 763 mmHg 81%
    16:00 +1°C° 0 mm 5 m/s 763 mmHg 82%
    17:00 +1°C° 0 mm 5 m/s 763 mmHg 83%
    18:00 +1°C° 0 mm 5 m/s 763 mmHg 84%
    19:00 +1°C° 0,3 mm 6 m/s 763 mmHg 86%
    20:00 +2°C° 0,3 mm 7 m/s 762 mmHg 88%
    21:00 +2°C° 0,3 mm 7 m/s 762 mmHg 90%
    22:00 +3°C° 0,7 mm 7 m/s 762 mmHg 90%
    23:00 +2°C° 0,7 mm 8 m/s 761 mmHg 90%

    18 Decembrie, Luni

    Timp Temperatura Precipitaţii Vânt Presiune Umiditate
    00:00 +4°C° 0,7 mm 8 m/s 760 mmHg 91%
    01:00 +5°C° 0,7 mm 8 m/s 760 mmHg 91%
    02:00 +5°C° 0,7 mm 7 m/s 760 mmHg 92%
    03:00 +7°C° 0,7 mm 6 m/s 760 mmHg 93%
    04:00 +6°C° 0,1 mm 5 m/s 760 mmHg 91%
    05:00 +5°C° 0,1 mm 5 m/s 761 mmHg 88%
    06:00 +5°C° 0,1 mm 4 m/s 761 mmHg 86%
    07:00 +4°C° 0 mm 4 m/s 762 mmHg 85%
    08:00 +4°C° 0 mm 3 m/s 763 mmHg 85%
    09:00 +4°C° 0 mm 3 m/s 763 mmHg 84%
    10:00 +4°C° 0 mm 4 m/s 764 mmHg 80%
    11:00 +5°C° 0 mm 4 m/s 764 mmHg 77%
    12:00 +6°C° 0 mm 5 m/s 764 mmHg 74%
    13:00 +6°C° 0 mm 4 m/s 765 mmHg 77%
    14:00 +5°C° 0 mm 3 m/s 765 mmHg 80%
    15:00 +5°C° 0 mm 3 m/s 765 mmHg 83%
    16:00 +5°C° 0 mm 2 m/s 766 mmHg 86%
    17:00 +5°C° 0 mm 2 m/s 766 mmHg 89%
    18:00 +4°C° 0 mm 2 m/s 767 mmHg 91%
    19:00 +4°C° 0 mm 2 m/s 767 mmHg 92%
    20:00 +3°C° 0 mm 2 m/s 768 mmHg 92%
    21:00 +3°C° 0 mm 2 m/s 768 mmHg 93%
    22:00 +3°C° 0 mm 2 m/s 768 mmHg 94%
    23:00 +3°C° 0 mm 2 m/s 769 mmHg 94%

    19 Decembrie, Marţi

    Timp Temperatura Precipitaţii Vânt Presiune Umiditate
    00:00 +3°C° 0 mm 1 m/s 769 mmHg 94%
    01:00 +3°C° 0 mm 1 m/s 769 mmHg 94%
    02:00 +3°C° 0 mm 1 m/s 769 mmHg 95%
    03:00 +3°C° 0 mm 1 m/s 769 mmHg 95%
    04:00 +3°C° 0 mm 1 m/s 770 mmHg 95%
    05:00 +3°C° 0 mm 1 m/s 770 mmHg 95%
    06:00 +2°C° 0 mm 0 m/s 770 mmHg 95%
    07:00 +3°C° 0 mm 1 m/s 771 mmHg 95%
    08:00 +3°C° 0 mm 1 m/s 771 mmHg 94%
    09:00 +4°C° 0 mm 1 m/s 772 mmHg 94%
    10:00 +4°C° 0 mm 2 m/s 772 mmHg 91%
    11:00 +5°C° 0 mm 2 m/s 772 mmHg 88%
    12:00 +5°C° 0 mm 2 m/s 772 mmHg 85%
    13:00 +5°C° 0 mm 2 m/s 772 mmHg 87%
    14:00 +5°C° 0 mm 2 m/s 772 mmHg 88%
    15:00 +4°C° 0 mm 2 m/s 772 mmHg 90%
    16:00 +4°C° 0 mm 2 m/s 772 mmHg 91%
    17:00 +3°C° 0 mm 2 m/s 772 mmHg 91%
    18:00 +3°C° 0 mm 2 m/s 772 mmHg 92%
    19:00 +2°C° 0 mm 3 m/s 772 mmHg 91%
    20:00 +2°C° 0 mm 3 m/s 772 mmHg 91%
    21:00 +1°C° 0 mm 3 m/s 773 mmHg 90%
    22:00 +2°C° 0,1 mm 3 m/s 773 mmHg 90%
    23:00 +2°C° 0,1 mm 3 m/s 772 mmHg 89%

    20 Decembrie, Miercuri

    Timp Temperatura Precipitaţii Vânt Presiune Umiditate
    00:00 +2°C° 0,1 mm 3 m/s 772 mmHg 88%
    01:00 +3°C° 0,1 mm 3 m/s 772 mmHg 89%
    02:00 +3°C° 0,1 mm 3 m/s 772 mmHg 89%
    03:00 +3°C° 0,1 mm 4 m/s 772 mmHg 89%
    04:00 +3°C° 0,1 mm 3 m/s 772 mmHg 91%
    05:00 +4°C° 0,1 mm 3 m/s 772 mmHg 92%
    06:00 +4°C° 0,1 mm 3 m/s 772 mmHg 93%
    07:00 +4°C° 0,1 mm 3 m/s 772 mmHg 93%
    08:00 +4°C° 0,1 mm 3 m/s 773 mmHg 94%
    09:00 +4°C° 0,1 mm 3 m/s 773 mmHg 95%
    10:00 +5°C° 0 mm 3 m/s 773 mmHg 95%
    11:00 +7°C° 0 mm 3 m/s 773 mmHg 95%
    12:00 +7°C° 0 mm 3 m/s 773 mmHg 95%
    13:00 +8°C° 0 mm 2 m/s 773 mmHg 96%
    14:00 +8°C° 0 mm 2 m/s 773 mmHg 96%
    15:00 +8°C° 0 mm 2 m/s 773 mmHg 97%
    16:00 +8°C° 0 mm 2 m/s 773 mmHg 97%
    17:00 +8°C° 0 mm 2 m/s 773 mmHg 97%
    18:00 +8°C° 0 mm 2 m/s 773 mmHg 97%
    19:00 +8°C° 0 mm 2 m/s 774 mmHg 97%
    20:00 +8°C° 0 mm 2 m/s 774 mmHg 97%
    21:00 +8°C° 0 mm 2 m/s 774 mmHg 97%
    22:00 +7°C° 0 mm 2 m/s 774 mmHg 97%
    23:00 +7°C° 0 mm 2 m/s 774 mmHg 97%
    Arată mai mult